Theta_e
343 353 355 354 356 360 361 360 357 354 353 350 348 351 353 356 354 356 350 348 345 346 347 348 347 347 345 345 345 345 346 346 346 346 345 344 337 333 334 335 336 335 336 336 336 341 336 340 341
349 353 352 349 357 363 361 356 358 354 353 353 352 353 354 359 355 350 349 347 346 342 346 348 345 345 343 342 343 343 343 345 344 344 342 337 333 333 333 335 334 336 335 337 339 341 337 342 342
349 351 349 354 355 362 362 356 354 353 352 352 354 353 354 353 351 349 348 348 344 342 346 344 343 342 340 337 336 337 339 338 338 336 334 335 335 333 334 336 335 341 338 337 339 340 339 338 341
347 349 349 355 356 353 354 356 355 354 354 354 353 355 353 351 349 349 347 347 345 343 345 344 343 340 337 330 330 332 333 331 331 334 337 338 335 333 334 336 332 333 335 339 339 339 339 341 341
347 347 356 358 359 355 351 352 355 352 353 354 353 355 353 353 349 348 346 347 347 346 348 346 341 338 330 327 334 342 330 330 330 332 344 335 334 331 335 335 335 335 339 335 338 335 336 336 336
350 352 360 363 359 357 356 355 350 354 354 354 353 353 353 352 348 348 348 348 348 348 348 346 338 333 327 327 337 343 338 329 324 323 333 335 332 331 334 333 335 336 336 336 333 335 336 340 341
342 354 358 358 359 358 356 354 355 357 354 354 352 356 352 354 348 348 349 349 349 348 347 346 335 329 328 327 331 341 336 340 334 328 327 341 330 335 332 332 335 335 335 335 332 331 337 339 340
348 355 358 357 358 358 354 354 355 355 355 353 352 356 354 354 350 347 348 348 348 347 346 343 331 330 327 327 330 340 333 337 339 335 330 331 333 335 338 331 333 335 335 335 334 334 333 335 340
349 352 358 355 356 354 355 355 355 354 354 353 353 353 353 353 350 348 347 348 347 347 345 341 330 333 338 329 329 340 343 330 341 339 331 333 342 340 340 331 331 335 335 336 336 337 335 335 335
347 352 352 350 350 351 354 354 355 354 353 353 353 353 352 351 349 349 348 347 347 346 347 340 331 333 338 340 331 344 338 336 338 335 332 336 337 340 341 338 331 335 335 335 334 336 336 337 338
347 349 348 347 349 350 353 353 353 353 355 353 354 354 351 351 351 349 346 346 345 344 345 345 332 330 334 340 340 337 340 344 335 339 332 331 336 341 337 337 338 344 338 339 337 336 337 333 334
339 343 347 348 348 351 352 352 353 352 352 352 351 351 352 351 352 350 348 346 347 346 339 340 339 329 330 337 340 338 340 340 344 332 330 330 330 338 341 332 330 334 335 341 342 341 337 333 334
342 341 340 341 348 350 351 352 353 353 352 351 351 353 354 353 352 351 349 348 348 347 342 343 342 332 329 337 339 338 340 336 342 330 331 329 331 336 341 341 335 332 335 338 342 343 342 342 342
335 341 338 345 348 350 351 353 353 354 353 352 351 354 354 353 352 351 350 349 349 347 343 344 344 338 336 338 339 338 337 339 337 331 331 332 337 341 339 342 343 341 341 342 342 342 343 343 343
330 338 345 347 348 349 350 352 353 353 353 353 353 353 354 353 353 349 349 348 348 348 345 342 340 338 337 339 339 339 336 338 332 331 333 335 342 344 343 342 343 344 344 344 343 343 343 343 342
335 341 347 340 348 349 349 354 351 353 353 353 353 353 353 353 352 350 350 350 350 349 347 345 340 338 339 339 338 337 334 335 330 331 333 337 344 346 346 344 343 343 344 344 345 344 342 341 341
335 340 339 339 347 349 348 351 346 352 352 353 353 352 353 353 353 352 350 350 351 350 348 346 344 342 340 340 339 338 332 334 331 332 339 339 343 343 343 343 342 341 343 344 344 344 342 343 343
335 335 334 336 339 347 350 350 346 351 352 352 353 353 353 353 350 350 351 351 351 351 350 348 347 345 344 342 340 339 332 332 332 335 344 344 343 344 344 344 345 343 342 344 345 345 343 343 343
330 331 333 333 333 335 338 341 343 348 353 353 353 353 353 354 352 350 350 351 352 352 351 351 349 349 347 343 337 336 330 332 337 341 345 342 342 343 344 344 343 345 344 344 345 345 345 344 343
328 329 332 333 332 336 340 343 343 344 350 352 353 352 353 352 353 351 350 351 352 352 352 351 349 349 349 347 340 341 333 335 341 344 345 342 344 343 344 343 343 344 344 344 345 345 345 344 344
329 330 329 331 330 336 339 344 344 344 344 346 352 353 353 354 353 351 349 349 350 350 351 350 349 348 349 349 345 341 342 337 343 344 344 343 341 342 341 342 341 341 343 345 345 346 345 345 345
336 327 327 328 328 340 336 343 343 340 341 345 345 349 350 352 352 353 352 351 350 350 349 350 349 348 348 349 349 345 344 344 343 345 344 342 340 342 340 341 341 341 342 345 344 345 345 345 346
333 327 328 330 331 336 339 340 341 337 340 341 344 344 345 346 349 348 345 348 350 343 338 346 349 348 349 348 349 349 345 344 345 345 345 346 344 343 343 341 343 341 339 342 344 342 346 344 345
325 325 328 332 333 338 338 339 338 338 339 342 340 342 344 344 343 343 343 343 346 348 339 345 347 347 350 349 348 347 347 346 345 344 345 345 345 344 343 341 339 340 338 341 345 344 343 345 343
324 326 330 332 336 338 338 341 339 339 337 338 339 337 338 343 343 342 341 341 342 344 342 341 342 349 351 350 349 349 346 345 345 344 345 346 345 345 342 340 342 341 336 337 345 345 344 344 344
325 327 331 333 335 336 339 341 337 336 336 335 335 336 336 338 341 343 340 340 343 344 344 341 342 345 350 351 350 348 346 345 345 345 346 346 346 345 342 340 343 344 341 343 345 346 346 345 344
326 326 327 329 331 335 336 338 336 336 337 337 337 337 337 336 339 337 338 341 342 344 343 340 344 345 351 346 348 350 347 346 345 346 346 346 345 344 343 341 345 340 343 344 343 342 344 344 345
327 327 329 331 336 335 336 337 338 340 338 338 337 337 338 337 335 337 338 340 343 344 342 341 346 346 344 348 351 348 346 346 346 347 346 344 345 344 343 344 341 341 345 343 343 344 344 345 346
326 327 328 330 332 333 335 335 338 341 340 339 339 337 338 338 336 336 338 339 345 345 344 346 351 351 349 350 350 350 347 347 347 348 347 345 344 343 343 343 343 344 342 343 343 345 346 345 345
325 328 329 328 333 333 335 334 334 338 338 336 337 338 339 337 338 336 338 343 346 349 348 352 351 351 350 351 353 353 352 351 350 348 348 346 344 346 346 344 345 344 344 342 343 344 346 346 345
Wind_Speed
5 7 7 2 1 4 5 3 4 5 5 2 19 3 5 4 1 1 12 28 32 33 30 26 23 21 19 18 17 17 16 16 14 14 14 13 11 10 7 4 3 5 5 5 6 7 7 11 12
5 6 3 1 2 3 1 3 3 2 5 12 11 8 3 3 2 8 21 28 31 33 29 26 23 21 19 18 18 17 17 15 15 14 13 13 12 10 6 6 5 6 6 6 8 6 9 11 13
6 4 1 2 2 4 2 1 3 8 5 7 4 5 3 3 2 21 24 31 32 31 28 26 22 21 20 19 18 17 17 16 15 14 14 12 12 10 6 8 10 8 8 8 7 6 8 10 11
2 2 2 2 6 3 3 2 1 1 3 3 7 7 5 1 12 15 31 32 31 30 26 25 22 22 21 18 17 16 15 15 14 13 12 12 11 9 6 7 9 9 8 7 7 7 8 7 9
0 1 2 2 3 1 5 8 7 2 1 4 1 5 7 2 10 24 34 30 29 28 26 25 22 22 21 19 18 15 15 13 12 12 11 11 11 9 6 7 8 7 8 8 6 6 8 7 8
1 1 2 3 3 1 2 9 11 6 4 6 7 9 4 6 16 29 30 28 28 27 25 24 24 23 21 20 20 16 15 13 12 12 12 10 9 8 6 6 8 7 8 8 7 7 8 9 9
3 1 3 2 4 2 2 9 6 6 5 2 13 5 7 12 20 27 28 27 26 24 24 24 25 23 20 21 22 18 16 14 12 11 13 10 8 7 6 6 7 7 8 7 7 7 8 7 8
2 0 2 1 1 1 3 6 6 6 3 11 7 5 7 19 25 25 27 25 24 24 24 24 25 23 21 22 23 19 17 16 13 13 13 9 8 6 6 7 7 7 7 7 6 6 7 8 7
4 1 2 4 4 1 8 4 6 4 11 4 4 5 10 26 27 26 26 25 24 24 24 24 26 25 22 21 22 18 15 16 15 13 13 11 9 9 9 9 8 8 7 7 6 6 6 7 8
2 1 3 1 4 4 7 6 11 5 10 4 7 8 25 28 28 30 30 28 27 27 26 26 27 26 24 22 22 19 17 16 17 16 14 11 8 7 10 12 10 9 7 7 7 7 7 7 7
4 2 2 3 8 6 6 7 8 7 7 10 15 22 28 29 28 31 30 30 29 28 27 27 28 28 26 24 22 22 21 18 19 17 15 11 8 6 9 13 11 8 7 8 9 9 9 8 7
3 6 6 6 7 7 5 4 4 10 2 4 12 22 32 31 29 30 31 31 29 30 31 29 27 29 28 25 23 22 21 20 18 18 16 12 8 6 5 12 14 12 9 8 9 10 12 11 9
1 5 5 8 7 12 8 6 5 8 2 8 16 24 30 28 27 26 28 28 28 29 32 31 29 29 29 27 24 20 20 21 18 18 16 13 9 7 7 8 13 14 12 11 9 9 9 10 11
4 7 12 5 8 9 9 2 3 3 9 15 19 24 28 28 27 25 26 29 28 27 31 30 31 29 28 28 26 21 20 20 19 18 17 14 11 9 9 9 9 11 11 11 11 11 12 13 11
2 2 2 2 6 4 7 6 12 5 13 16 19 21 25 26 27 31 30 28 26 24 25 29 30 30 29 29 26 24 22 21 21 18 17 16 13 11 9 10 11 11 14 14 15 14 15 15 15
4 2 2 4 2 2 9 13 13 11 19 18 19 20 22 25 30 29 29 27 26 24 23 25 29 30 30 29 27 25 23 22 21 20 19 17 15 13 11 10 10 10 11 11 12 12 12 12 14
4 2 2 2 6 4 6 16 6 12 16 17 19 21 22 23 27 28 30 28 26 24 23 25 25 26 28 29 28 26 23 24 23 21 19 17 14 13 13 13 12 11 11 11 11 11 12 12 12
2 1 1 2 2 8 11 20 13 9 16 19 18 20 21 24 30 28 31 30 29 27 25 26 26 26 26 26 28 27 26 26 24 22 19 16 15 14 12 13 14 15 14 12 12 11 13 12 12
2 2 4 3 5 5 16 18 20 12 18 21 22 21 23 24 21 25 28 30 30 32 31 29 31 30 29 28 28 28 30 29 27 25 21 17 15 15 15 13 13 15 17 15 12 13 15 13 12
4 3 6 5 4 6 10 14 8 8 14 23 21 22 23 20 20 22 26 29 32 33 32 31 31 34 34 32 29 28 30 31 28 24 22 20 18 18 17 14 13 14 15 18 15 14 15 16 15
7 6 4 6 9 1 5 8 8 3 9 11 20 21 22 22 23 25 27 29 31 34 34 34 33 34 37 34 33 32 30 31 29 28 28 25 17 20 19 16 15 13 15 15 14 16 17 17 17
15 5 5 5 8 4 3 5 4 4 10 10 15 20 22 21 22 25 24 28 30 33 34 33 32 34 34 35 38 37 36 33 35 37 26 32 27 22 19 16 15 12 12 12 14 16 19 17 18
14 2 3 5 5 4 3 4 7 4 9 7 10 19 21 20 20 21 23 26 25 22 23 29 30 29 30 34 36 38 38 36 34 32 31 28 26 28 16 21 18 17 13 14 16 16 19 18 17
8 0 2 1 2 4 1 3 9 4 5 4 2 8 16 17 20 19 18 21 27 27 21 24 28 29 30 29 29 35 37 39 38 33 30 28 31 28 19 14 23 22 20 17 18 18 20 20 18
9 9 6 5 5 5 4 3 8 9 10 7 7 7 5 14 18 18 20 20 22 25 25 23 24 24 25 27 25 27 30 35 38 34 33 28 30 27 18 17 17 23 23 20 19 20 20 20 20
13 13 6 8 6 6 4 5 8 4 6 9 12 13 11 9 13 17 18 17 18 20 21 19 17 21 21 20 21 23 27 29 29 28 32 25 22 18 16 17 19 20 21 19 19 21 21 21 20
6 8 5 2 0 3 2 5 10 7 6 5 11 11 15 10 12 13 17 17 17 18 21 15 11 16 18 17 18 19 18 19 24 22 25 25 22 19 20 20 18 18 18 17 16 20 20 20 21
8 13 5 3 6 8 4 3 5 9 10 7 8 11 12 7 8 11 15 16 16 15 16 15 10 11 12 14 15 14 14 16 19 21 22 20 18 19 21 19 18 17 16 17 17 17 20 20 21
6 6 3 2 2 8 10 8 8 11 8 9 10 10 10 7 6 8 13 16 14 13 14 12 11 13 13 13 14 15 16 17 20 21 20 19 18 18 17 16 15 13 15 15 15 15 19 20 21
2 10 13 9 6 2 4 9 3 10 6 9 14 13 8 9 8 6 11 16 15 14 15 12 11 12 12 12 13 15 18 20 21 19 18 16 15 13 13 12 12 13 12 10 10 12 16 18 23
Wind_Direction
101 118 125 99 112 39 4 26 305 118 145 154 162 157 188 71 223 12 153 160 165 160 160 162 166 164 162 162 158 158 159 159 160 157 157 158 154 146 129 112 117 131 133 129 125 123 112 122 123
113 98 88 68 70 99 245 308 52 328 120 131 152 119 111 100 61 137 145 158 166 160 158 162 170 171 170 168 164 166 166 168 168 166 166 164 156 140 105 103 117 114 121 119 122 119 128 130 128
121 60 56 77 99 137 117 307 125 127 100 156 145 84 75 55 165 145 159 157 165 160 161 165 170 172 169 167 164 166 168 170 170 168 168 163 156 141 112 109 111 117 123 122 127 132 124 134 139
110 50 46 60 104 159 139 199 103 171 43 150 129 81 70 207 147 156 157 157 163 162 163 166 173 169 169 167 166 165 167 167 166 165 166 172 166 153 126 127 128 127 134 131 133 136 141 139 144
154 333 63 55 14 159 205 190 202 174 84 130 133 105 102 63 169 151 155 158 162 162 164 168 175 171 171 167 163 166 168 172 176 174 170 177 179 171 151 142 132 139 143 143 147 147 153 151 150
245 307 37 36 23 286 196 205 188 202 148 141 119 113 100 133 159 155 157 159 165 164 163 169 174 174 173 172 169 169 171 173 170 170 169 170 178 179 169 150 139 139 148 152 153 150 151 146 148
272 35 59 359 353 306 182 150 165 171 162 151 147 91 129 153 159 159 161 163 165 165 166 170 174 176 179 178 177 174 176 174 164 169 169 169 177 191 180 171 158 148 150 157 156 151 159 159 157
186 106 125 277 283 318 177 167 161 153 110 136 144 146 170 174 164 161 164 166 168 172 172 174 176 174 174 178 180 178 181 179 173 172 159 180 177 208 199 191 176 170 164 170 181 175 172 176 182
172 222 176 187 200 159 172 156 144 140 136 129 172 151 170 160 164 162 165 170 173 177 181 182 181 178 176 178 182 185 187 184 181 180 178 179 187 208 225 195 193 182 182 189 193 204 210 206 199
200 164 230 248 238 220 191 175 163 158 148 125 101 127 151 160 165 167 172 176 181 182 186 188 188 187 184 183 187 187 192 190 188 187 188 181 185 199 219 196 193 184 188 198 213 215 215 222 224
175 229 229 264 258 226 188 180 166 160 184 200 180 157 160 165 172 177 179 183 186 186 189 192 194 193 193 191 191 194 192 196 196 195 194 190 192 201 196 197 189 195 207 216 220 220 224 228 229
305 267 262 315 220 194 191 178 200 205 148 245 198 175 169 173 178 182 186 186 189 192 196 196 197 198 199 199 200 197 199 198 204 201 200 204 212 206 197 203 205 211 225 225 223 231 223 226 237
241 312 306 265 275 233 180 203 229 226 242 159 166 170 175 179 183 188 191 192 192 199 200 202 202 201 204 205 207 206 205 207 206 208 209 213 222 217 211 207 220 227 236 236 240 240 224 226 238
204 246 274 254 238 218 211 188 221 189 160 154 166 176 182 186 189 188 190 194 199 205 206 205 206 206 208 210 215 212 213 211 210 212 213 213 219 214 217 221 228 229 230 235 240 247 246 245 235
249 209 176 232 160 172 180 250 236 183 170 167 174 182 189 194 195 200 197 199 203 210 210 207 207 209 212 214 217 217 215 214 213 212 215 215 217 226 228 233 242 248 249 244 246 247 245 244 235
359 37 201 11 154 87 204 262 251 194 181 188 183 189 197 202 207 207 207 207 210 212 212 211 212 216 217 218 220 222 219 217 214 212 215 218 221 229 232 245 249 250 247 250 248 249 245 232 229
28 103 103 42 182 151 211 270 266 199 201 202 194 196 203 207 214 214 215 214 217 216 213 213 216 222 223 223 226 225 225 220 216 214 215 215 217 225 233 239 251 259 255 263 260 252 242 236 236
101 207 317 283 26 217 238 260 250 205 209 220 209 207 208 211 217 216 219 221 222 225 224 225 221 224 230 230 230 227 224 219 217 214 216 215 224 228 228 237 246 255 258 257 262 264 248 244 240
186 238 280 241 264 267 250 255 270 223 212 221 219 212 216 220 225 222 226 231 228 229 227 227 229 227 224 228 225 223 220 214 212 212 214 216 220 225 236 246 254 263 264 260 255 258 248 241 238
200 268 290 289 203 234 284 260 265 219 234 230 224 220 222 223 223 227 228 232 235 240 238 232 235 233 229 229 228 224 221 216 214 218 219 220 230 233 240 249 257 265 270 251 257 253 251 239 235
221 252 285 300 325 119 297 277 280 221 252 252 232 234 232 223 221 229 229 232 234 238 238 240 237 234 233 230 228 227 228 230 222 222 227 220 234 232 231 244 253 262 266 253 263 257 250 247 235
245 212 269 281 327 292 340 280 274 300 278 235 232 229 233 228 229 232 232 234 234 240 242 239 239 235 234 234 230 230 230 229 230 229 231 217 220 223 223 239 247 252 265 264 250 249 245 241 235
249 182 335 314 287 266 162 257 287 327 303 292 235 229 234 230 230 230 233 233 235 237 247 235 232 234 232 233 235 235 233 237 239 244 242 232 222 220 260 231 239 253 269 265 254 247 238 240 235
137 106 26 103 249 241 84 275 286 302 298 319 319 243 235 229 236 236 237 235 235 241 240 229 232 236 231 229 235 237 235 238 239 246 242 240 230 228 260 239 242 248 258 263 260 250 243 239 236
179 192 234 231 212 233 95 246 265 285 285 250 294 306 288 237 238 235 229 234 231 228 230 228 231 229 229 233 237 241 238 236 242 249 241 241 236 235 252 255 253 246 256 265 265 252 246 239 241
179 203 215 231 221 230 148 242 271 269 306 283 270 270 280 260 233 226 228 222 222 219 219 219 224 221 225 228 238 238 237 237 244 247 240 247 254 251 247 258 255 254 254 266 259 247 247 241 240
162 196 230 191 74 242 201 259 273 288 295 285 281 271 271 251 241 228 220 211 210 213 209 216 219 217 218 237 233 238 234 228 236 241 239 254 248 238 240 259 250 243 253 252 267 251 241 235 226
225 149 164 224 195 234 205 257 264 285 309 297 281 273 277 279 249 217 211 206 207 213 210 214 219 217 219 227 225 224 218 226 232 232 244 236 235 241 255 249 238 244 246 255 262 254 237 229 218
165 187 88 156 278 242 253 254 219 247 269 280 288 281 294 302 282 215 200 198 198 208 208 208 217 218 218 220 220 218 218 222 223 232 233 228 232 238 238 239 232 232 246 261 269 248 227 224 214
251 202 200 227 197 213 288 263 210 248 275 272 271 277 280 296 284 218 188 189 193 194 196 202 211 216 218 221 220 214 215 222 221 214 210 211 208 218 224 223 230 233 245 272 264 237 226 221 210